Regional Weather Roundup
Issued by NWS

Home | Current Version | Previous Version | Graphics & Text | Print | Product List | Glossary On
Versions: 1 2 3 4 5 6 7 8 9 10 11 12 13 14 15 16 17 18 19 20 21 22 23 24 25 26 27 28 29 30 31 32 33 34 35 36 37 38 39 40 41 42 43 44 45 46 47 48 49 50
000
ASUS45 KCYS 221210
RWRWY

WYOMING REGIONAL WEATHER ROUNDUP
NATIONAL WEATHER SERVICE CHEYENNE WY
600 AM MDT FRI MAY 22 2015

NOTE:  "FAIR" INDICATES FEW OR NO CLOUDS BELOW 12,000 FEET
WITH NO SIGNIFICANT WEATHER AND/OR OBSTRUCTIONS TO VISIBILITY.

WYZ001-221300-
YELLOWSTONE NATIONAL PARK

CITY           SKY/WX    TMP DP  RH WIND       PRES   REMARKS
LK YELLOWSTONE   N/A     34  32  92 CALM      30.06S
6HR MIN TEMP:  32; 6HR MAX TEMP:  36;

W YELLOWSTONE  NOT AVBL

$$
WYZ002>013-054>058-071-098>099-221300-
NORTHERN WYOMING

CITY           SKY/WX    TMP DP  RH WIND       PRES   REMARKS
JACKSON        CLOUDY    43  43 100 CALM      30.00S
CODY           FAIR      46  43  87 CALM      29.97S
GREYBULL       FAIR      50  45  83 CALM      29.94S
6HR MIN TEMP:  48; 6HR MAX TEMP:  57; 6HR PCP: TRACE;

WORLAND        FAIR      48  44  86 S3        29.95S
6HR MIN TEMP:  47; 6HR MAX TEMP:  53;

SHERIDAN       FAIR      41  39  93 SW5       29.96F
6HR MIN TEMP:  40; 6HR MAX TEMP:  51;

BUFFALO        CLOUDY    45  43  93 S14       29.99F
6HR MIN TEMP:  44; 6HR MAX TEMP:  48;

GILLETTE       MOCLDY    47  44  90 SE9       30.02S
6HR MIN TEMP:  45; 6HR MAX TEMP:  50;

HULETT         FAIR      46  41  81 E3        30.07S
NEWCASTLE      CLOUDY    48  41  76 SE14      30.06F

$$
WYZ014>020-022>026-101>103-221300-
CENTRAL WYOMING

CITY           SKY/WX    TMP DP  RH WIND       PRES   REMARKS
BIG PINEY      CLOUDY    43  41  93 N3        30.02S
6HR MIN TEMP:  42; 6HR MAX TEMP:  45;

PINEDALE       PTSUNNY   37  37 100 CALM      30.03S
DUBOIS         CLOUDY    39  36  87 NW7       30.02S WCI  34
LANDER         MOCLDY    43  40  89 W7        29.97F
6HR MIN TEMP:  43; 6HR MAX TEMP:  49; 6HR PCP: TRACE;

RIVERTON       MOCLDY    44  42  93 NE9       29.98S
6HR MIN TEMP:  44; 6HR MAX TEMP:  48;

CASPER         CLOUDY    44  43  96 E6        29.99S
6HR MIN TEMP:  44; 6HR MAX TEMP:  46;

DOUGLAS        CLOUDY    47  44  90 SE17G23   30.02S
6HR MIN TEMP:  47; 6HR MAX TEMP:  49;


$$
WYZ021-027>030-104>119-221300-
SOUTHERN WYOMING

CITY           SKY/WX    TMP DP  RH WIND       PRES   REMARKS
EVANSTON       CLOUDY    40  37  89 N6        29.99S
6HR MIN TEMP:  40; 6HR MAX TEMP:  42;

KEMMERER       FAIR      37  36  93 N7        30.01S WCI  32
FORT BRIDGER   SUNNY     39  39 100 CALM      30.02S FOG
ROCK SPRINGS   FAIR      42  37  82 SE5       30.00S
6HR MIN TEMP:  41; 6HR MAX TEMP:  45; 6HR PCP:  0.03;

DIXON          CLOUDY    46  42  84 E3        30.02S
RAWLINS        CLOUDY    43  42  97 SE6       30.00S
6HR MIN TEMP:  43; 6HR MAX TEMP:  44; 6HR PCP:  0.09;

SARATOGA       RAIN      43  41  93 CALM      30.02S
LARAMIE        LGT RAIN  41  40  96 SE12      30.00F
6HR MIN TEMP:  41; 6HR MAX TEMP:  43; 6HR PCP: TRACE;

CHEYENNE       FOG       42  42 100 SE14      30.03S VSB 1/4
6HR MIN TEMP:  42; 6HR MAX TEMP:  45; 6HR PCP:  0.02;

TORRINGTON     CLOUDY    48  44  86 SE8       30.04R
6HR MIN TEMP:  48; 6HR MAX TEMP:  50;

PINE BLUFFS    CLOUDY    43  43 100 SE13      30.05F

$$



USA.gov is the U.S. government's official web portal to all federal, state and local government web resources and services.